Regional Weather Roundup
Issued by NWS

Home | Current Version | Previous Version | Graphics & Text | Print | Product List | Glossary On
Versions: 1 2 3 4 5 6 7 8 9 10 11 12 13 14 15 16 17 18 19 20 21 22 23 24 25 26 27 28 29 30 31 32 33 34 35 36 37 38 39 40 41 42 43 44 45 46 47 48 49 50
000
ASUS43 KLMK 202110
RWRKY
KENTUCKY REGIONAL WEATHER ROUNDUP
NATIONAL WEATHER SERVICE LOUISVILLE KY
500 PM EDT SUN APR 20 2014

NOTE "FAIR" INDICATES FEW OR NO CLOUDS BELOW 12,000 FEET
WITH NO SIGNIFICANT WEATHER AND/OR OBSTRUCTIONS TO VISIBILITY.

KYZ001>023-026-027-061>063-070>075-202200-
WESTERN AND SOUTH CENTRAL KENTUCKY

CITY           SKY/WX    TMP DP  RH WIND       PRES   REMARKS
PADUCAH        MOSUNNY   80  45  28 CALM      30.12F
HENDERSON      PTSUNNY   75  37  25 CALM      30.13F
OWENSBORO      PTSUNNY   77  37  23 W6        30.14F
HOPKINSVILLE   PTSUNNY   77  39  25 VRB2      30.13F
BOWLING GREEN  PTSUNNY   76  37  24 CALM      30.15F
GLASGOW        SUNNY     77  41  27 CALM      30.14F
$$

KYZ024-025-028>034-038-045-046-053-202200-
NORTH CENTRAL KENTUCKY

CITY           SKY/WX    TMP DP  RH WIND       PRES   REMARKS
LOUISVILLE/SDF PTSUNNY   78  40  25 E8        30.12F
LOUISVILLE/LOU MOSUNNY   79  38  22 E5        30.13F
FORT KNOX      MOSUNNY   76  35  22 SE6       30.13F
$$

KYZ035>037-039>044-047>052-055>060-089>105-202200-
NORTHEAST KENTUCKY

CITY           SKY/WX    TMP DP  RH WIND       PRES   REMARKS
LEXINGTON      SUNNY     75  39  27 S7        30.16F
COVINGTON      MOSUNNY   75  33  21 VRB3      30.16F
FRANKFORT      SUNNY     76  39  26 E3        30.14F
$$

KYZ054-064>069-076>088-106>120-202200-
SOUTHEAST KENTUCKY

CITY           SKY/WX    TMP DP  RH WIND       PRES   REMARKS
JACKSON        SUNNY     76  27  16 VRB3      30.16F
LONDON         SUNNY     78  37  22 CALM      30.15F
SOMERSET       SUNNY     75  36  23 CALM      30.15F
MIDDLESBORO    SUNNY     77  37  23 E5        30.15F
MONTICELLO     PTCLDY    78  42  27 N6        30.15F
$$




USA.gov is the U.S. government's official web portal to all federal, state and local government web resources and services.